Tracking 29924 objects as of 4-Dec-2024
HD Live streaming from Space Station
objects crossing your sky now

STARLINK-6366

Track STARLINK-6366 now!
10-day predictions
STARLINK-6366 is classified as:


NORAD ID: 57380
Int'l Code: 2023-099BE
Perigee: 565.0 km
Apogee: 567.5 km
Inclination: 43.0 °
Period: 95.8 minutes
Semi major axis: 6937 km
RCS: Unknown
Launch date: July 16, 2023
Source: United States (US)
Launch site: AIR FORCE EASTERN TEST RANGE (AFETR)
Your satellite tracking list
Your tracking list is empty




NASA's NSSDC Master Catalog

Two Line Element Set (TLE):
1 57380U 23099BE  24338.64512746  .00001838  00000-0  15116-3 0  9998
2 57380  43.0041 195.0977 0001809 266.0102  94.0534 15.02523537 77945
Source of the keplerian elements: AFSPC